Theta_e
354 350 349 348 342 334 328 320 318 318 315 314 316 326 327 322 322 321 320 322 324 324 325 326 326 326 333 333 333 333 333 334 336 336 336 337 341 340 342 344 344 345 346
347 347 348 338 327 322 316 315 315 314 324 327 329 329 325 323 320 319 319 320 322 331 332 332 335 334 335 335 335 335 334 335 335 336 336 336 338 339 340 341 340 340 342
345 348 343 326 329 318 315 313 313 313 316 331 332 332 332 330 325 324 326 329 332 333 333 334 334 330 337 335 336 336 335 335 335 337 336 336 337 336 338 338 339 338 339
342 348 331 328 323 319 314 313 313 312 319 329 331 331 332 330 329 329 328 327 328 332 332 331 332 332 332 333 335 336 337 336 336 336 335 334 335 335 336 336 338 338 338
342 345 325 324 323 319 315 313 311 313 321 327 329 330 330 330 329 329 328 327 325 329 331 330 330 329 329 329 328 330 330 335 335 335 335 335 336 338 338 337 336 336 337
347 333 324 324 325 322 318 313 312 314 318 327 329 330 330 329 326 325 325 327 325 324 325 327 325 325 328 327 327 326 326 329 335 334 336 335 333 337 337 336 338 340 338
344 325 324 324 324 324 319 314 313 316 327 326 328 329 331 330 324 324 324 326 325 323 320 322 324 326 326 325 328 327 329 330 330 330 333 334 334 333 333 332 336 336 339
329 325 325 325 325 324 321 316 313 320 325 326 325 327 332 331 327 324 322 325 326 322 318 320 323 324 317 317 324 329 331 332 333 332 334 332 330 329 329 330 334 334 337
325 325 325 326 326 325 323 318 315 320 327 327 325 326 328 329 326 321 322 326 324 321 316 320 316 323 318 317 323 328 329 330 330 328 328 328 328 328 328 331 333 333 334
326 326 327 328 328 327 325 318 319 315 324 323 326 324 325 320 321 321 322 323 321 317 314 321 319 313 315 317 321 325 327 327 329 329 329 329 327 327 326 328 330 330 333
328 329 331 334 337 329 325 317 314 316 324 320 323 322 314 313 320 311 310 310 317 313 312 318 322 317 314 316 317 323 322 320 325 326 326 326 325 324 324 324 324 325 327
331 333 336 339 333 330 322 318 314 316 325 325 326 325 322 313 312 312 311 309 307 307 312 317 321 314 314 314 316 320 320 320 322 323 323 323 322 321 320 320 318 317 317
334 335 338 334 329 325 322 318 324 319 322 325 325 325 322 320 319 314 310 307 305 304 314 315 310 309 310 316 317 318 319 319 318 318 318 317 316 315 309 313 314 309 311
334 337 334 329 327 324 327 326 324 323 323 324 323 323 322 321 320 318 316 314 309 310 313 316 310 311 311 311 313 317 317 315 314 314 315 315 314 313 312 311 311 311 310
337 334 332 331 328 327 324 323 324 324 323 324 323 323 322 321 321 319 316 315 313 314 312 315 316 317 317 317 317 316 316 316 315 315 315 314 314 313 312 312 312 311 311
334 332 329 327 325 323 323 324 322 317 319 318 317 316 319 321 317 315 314 315 315 314 314 316 317 317 317 316 316 316 316 316 315 314 314 315 314 314 313 313 312 312 313
331 328 326 322 323 323 323 322 322 321 320 317 317 316 316 317 317 316 315 314 315 315 315 315 316 317 318 316 316 316 316 315 316 315 314 314 314 315 314 312 312 314 314
327 322 325 325 325 324 324 323 323 323 322 321 321 319 316 316 317 317 315 315 315 315 315 316 317 317 318 318 317 316 316 316 315 315 314 314 314 314 314 313 313 314 315
328 327 327 327 326 325 324 325 325 324 323 323 323 322 320 318 318 318 317 315 317 319 319 319 319 318 318 318 318 317 317 316 316 315 314 314 314 314 314 313 313 314 314
329 326 325 326 326 326 328 327 327 327 327 324 324 324 323 321 321 320 318 316 317 318 319 319 320 320 319 319 318 318 318 318 317 316 315 314 313 314 313 313 314 314 315
326 326 326 327 327 326 326 325 327 328 327 327 326 326 323 322 321 321 321 321 321 321 321 321 321 321 321 321 319 319 318 318 318 318 317 315 314 314 313 313 314 315 315
330 331 330 330 330 330 329 329 328 328 327 327 327 326 326 325 324 323 322 322 323 322 323 323 323 322 322 322 321 321 319 319 318 318 318 317 315 314 313 313 314 315 315
325 325 326 325 326 326 325 326 326 326 326 326 326 326 326 326 326 325 324 325 325 325 324 323 324 324 323 322 321 320 320 319 319 318 318 318 316 315 314 314 315 315 315
318 318 318 318 317 317 317 319 322 322 321 323 322 322 322 323 324 324 324 324 324 324 323 323 324 325 324 323 322 321 320 320 318 317 317 317 318 317 315 315 315 315 315
310 310 310 310 311 311 311 311 311 312 315 316 316 316 317 317 317 317 318 319 320 320 322 323 323 323 323 324 323 323 321 320 319 319 320 319 317 318 317 316 316 316 316
306 306 306 306 306 305 305 305 305 305 305 305 305 304 304 303 304 304 305 307 309 313 313 318 318 318 320 321 321 321 321 321 321 320 321 321 317 316 316 317 317 317 317
Wind_Speed
11 10 8 5 2 1 2 5 5 6 6 5 4 2 3 3 4 4 5 7 6 7 7 7 7 8 6 8 9 10 11 11 15 13 12 11 12 13 13 13 12 12 13
12 9 8 5 2 1 4 4 5 5 3 2 2 3 2 3 5 6 5 5 4 3 3 3 3 4 5 7 6 8 9 10 11 14 12 12 12 11 13 15 12 11 12
11 10 8 5 3 2 3 4 4 4 3 1 2 2 3 4 6 4 2 1 1 1 2 2 4 3 2 4 4 5 6 8 10 10 13 11 10 11 11 11 12 12 11
14 11 9 6 3 2 3 3 4 4 2 2 3 4 4 3 4 3 2 1 0 2 1 2 4 3 3 4 4 5 6 7 8 9 11 11 10 10 11 10 10 9 10
14 12 11 9 3 3 4 5 5 4 3 4 3 4 3 2 3 2 3 4 4 3 3 3 6 8 7 7 5 7 7 7 7 9 9 8 7 7 8 9 10 11 10
16 14 13 7 3 5 5 5 5 4 3 3 2 5 5 2 10 4 2 5 5 5 4 5 8 7 9 9 8 7 7 7 6 5 7 7 5 6 8 7 7 7 7
18 16 12 6 6 6 6 5 5 4 4 4 5 5 5 7 8 6 6 5 5 6 7 4 3 6 9 7 7 6 6 7 6 5 5 5 6 8 8 9 9 8 9
21 17 11 8 7 7 7 7 7 5 5 5 7 6 6 7 12 9 8 5 7 8 8 6 4 5 8 6 5 4 4 5 5 3 3 5 7 8 9 9 11 11 10
17 13 11 9 8 8 8 8 7 7 6 6 6 5 7 8 13 9 8 6 8 9 8 6 5 3 10 5 3 5 4 4 8 7 7 9 10 10 9 7 7 8 8
16 12 9 6 7 9 10 9 8 7 6 6 5 5 7 8 13 11 10 6 7 9 8 7 9 6 5 4 4 5 4 4 4 5 7 8 8 8 9 7 6 7 8
13 10 8 9 11 9 9 9 9 8 8 7 6 7 8 7 9 9 9 7 8 7 6 6 7 11 8 7 6 4 5 5 5 4 4 4 5 5 4 6 7 6 5
12 10 9 9 8 8 9 10 9 9 8 7 7 7 8 7 6 6 8 9 11 9 6 6 7 9 6 5 4 6 4 4 4 5 4 4 4 4 6 6 9 8 8
12 11 9 9 9 10 11 10 7 8 6 7 8 9 8 7 6 7 9 9 8 8 5 8 8 8 7 6 7 6 4 4 5 5 5 5 6 6 6 6 8 10 7
11 10 10 8 9 10 8 7 7 8 9 9 9 9 8 8 8 5 6 8 7 6 5 6 7 7 5 6 6 7 4 5 6 5 6 7 6 5 5 4 4 4 3
10 9 9 7 9 7 8 9 10 11 11 10 10 10 9 9 9 9 7 7 6 5 7 5 6 7 7 7 7 8 7 7 7 7 7 7 7 6 6 5 4 4 4
7 7 6 6 6 7 7 9 11 10 14 14 13 15 13 15 14 13 13 13 13 11 10 7 8 8 9 10 9 10 9 10 9 9 9 9 8 8 8 8 7 5 6
6 5 4 5 6 7 7 8 9 10 13 12 14 15 15 13 15 15 17 17 16 16 16 11 12 11 10 11 11 12 12 11 12 10 10 11 10 10 11 9 8 8 8
5 6 4 5 7 7 7 8 9 10 10 10 12 14 14 15 17 17 17 19 19 18 18 16 15 14 13 12 12 12 13 13 13 12 12 12 12 12 12 12 11 11 11
5 5 6 7 8 10 10 10 11 13 13 12 11 14 13 15 17 20 20 20 17 18 18 17 17 16 16 16 15 14 14 14 14 14 14 14 14 14 14 14 13 14 14
7 10 12 11 12 12 13 14 13 15 16 15 16 16 13 16 15 15 18 21 25 21 19 19 19 19 18 18 16 16 16 16 15 15 15 16 16 16 16 16 15 15 14
12 13 16 17 19 19 19 22 19 19 20 19 19 19 18 18 19 18 17 18 19 19 19 19 20 19 19 19 20 19 19 18 17 17 16 16 17 17 17 17 17 17 17
11 12 13 14 15 15 17 16 17 19 19 18 20 18 20 20 19 20 21 21 21 22 22 22 22 23 23 22 21 22 23 23 21 20 19 18 17 19 18 19 19 19 19
7 8 8 9 11 11 12 8 12 16 15 13 12 14 14 14 17 18 19 20 19 21 24 26 25 24 23 22 25 27 25 27 25 24 23 21 20 19 20 21 20 20 20
10 10 10 11 12 11 12 13 12 14 14 15 17 19 20 21 21 20 19 20 20 18 20 20 19 22 25 25 28 27 24 25 27 30 27 26 25 23 22 23 22 21 22
8 9 9 10 10 11 11 11 12 14 16 16 17 17 18 19 19 21 21 22 25 26 26 27 26 25 22 19 19 21 24 26 29 28 27 30 29 29 26 25 24 23 24
7 8 7 8 8 9 9 10 9 10 11 11 12 14 15 15 18 20 23 25 28 29 28 29 29 27 24 25 24 25 26 29 34 34 29 31 36 34 30 29 27 26 26
Wind_Direction
165 176 173 173 199 256 297 312 311 305 302 294 279 265 303 318 316 306 293 286 281 275 270 277 275 269 274 273 276 277 275 273 278 285 285 291 289 294 285 292 300 289 293
194 188 175 171 124 346 329 319 305 300 297 275 261 253 255 286 305 302 289 265 270 289 288 296 300 293 299 302 302 291 278 272 276 287 289 296 293 291 292 292 295 281 280
190 193 183 167 124 333 334 318 311 303 292 271 251 245 274 305 313 316 316 291 215 223 295 285 264 283 240 257 309 299 298 300 292 291 297 305 302 298 293 302 297 293 291
191 191 180 160 209 256 331 333 321 316 275 236 227 240 270 319 325 340 341 330 241 270 251 263 304 274 270 270 318 315 309 297 291 294 298 299 300 298 303 305 301 301 296
191 189 188 200 215 313 332 334 331 320 281 255 249 257 274 305 278 302 336 335 335 329 292 254 266 273 278 280 291 279 296 301 294 292 294 297 306 306 320 314 306 304 307
193 187 203 203 243 280 317 318 319 305 284 266 261 261 270 229 266 284 305 309 322 325 310 302 291 313 296 277 282 295 300 300 293 282 304 297 305 309 315 324 330 310 305
193 199 205 209 252 280 291 306 309 289 262 270 258 261 245 241 266 290 299 290 308 314 315 306 300 276 290 285 294 311 315 309 294 293 293 314 299 308 309 333 320 324 308
193 195 200 221 246 270 293 300 291 272 266 268 272 251 248 250 274 288 306 293 298 310 316 306 296 292 294 281 281 270 273 288 287 290 281 275 290 306 320 324 326 327 312
193 196 207 224 247 273 285 288 277 267 255 262 272 259 257 256 273 279 285 278 284 306 306 296 287 289 296 309 308 303 298 276 299 298 282 286 291 302 310 332 304 312 307
193 201 217 243 262 276 283 280 271 275 266 268 260 268 264 261 275 275 280 281 286 299 310 298 307 294 298 281 270 298 304 293 301 295 315 326 317 315 315 308 325 312 310
192 200 219 248 273 262 270 277 283 274 250 267 256 265 272 284 275 283 284 286 284 294 294 293 281 299 299 285 276 279 268 301 314 326 303 304 303 314 314 324 308 338 303
199 209 232 262 256 250 271 281 280 270 261 256 250 265 269 292 295 310 313 303 294 290 286 279 275 299 294 311 296 266 281 307 316 298 300 292 290 297 305 312 305 291 292
211 221 244 251 245 262 279 277 268 273 243 250 255 259 264 270 279 313 330 320 306 298 270 276 297 308 303 326 309 282 297 316 294 291 284 281 289 288 309 321 323 325 315
218 233 252 243 255 274 261 264 259 256 254 250 254 260 264 266 272 275 309 327 335 330 317 309 312 307 314 266 289 329 292 277 274 270 270 275 285 291 288 307 300 303 284
230 235 226 231 260 254 269 247 252 248 240 246 255 266 268 271 268 258 278 283 296 297 321 312 302 290 283 280 276 275 275 283 287 277 272 270 268 272 270 282 281 292 285
210 224 236 249 259 262 259 273 282 266 259 261 264 263 260 262 268 280 282 281 285 295 306 298 295 296 285 278 277 277 277 280 282 270 265 262 259 262 261 269 272 274 280
204 225 236 263 262 265 270 273 279 286 291 281 273 268 265 265 273 283 275 277 280 286 290 283 280 282 289 284 277 276 275 272 266 271 263 259 258 257 265 265 262 269 280
209 223 234 256 268 272 279 283 283 284 279 278 285 283 270 268 271 278 274 268 276 280 280 271 270 273 274 278 278 273 271 271 271 271 265 260 255 255 256 255 257 262 271
231 241 257 261 270 270 271 278 286 287 286 286 283 281 291 276 273 269 269 264 263 269 273 273 272 269 266 266 267 266 260 262 264 263 264 260 255 253 254 252 255 261 270
265 253 260 265 269 272 275 274 273 282 282 281 280 277 270 273 275 277 279 268 263 266 269 269 268 266 264 262 260 260 261 262 265 266 268 256 252 251 251 251 253 260 266
260 272 280 279 277 283 278 281 284 273 278 279 278 277 266 261 266 269 267 264 266 266 266 268 267 265 263 261 260 256 254 257 258 260 261 260 254 251 252 251 254 260 268
296 296 293 286 286 283 285 279 278 280 277 273 275 280 281 275 271 267 267 266 266 267 270 271 267 268 267 262 258 257 256 256 257 257 257 258 255 253 251 251 254 261 269
312 311 304 279 273 280 285 285 278 270 269 274 288 276 286 274 268 269 270 276 276 273 271 263 267 271 268 265 263 267 257 253 254 253 255 256 256 252 249 251 254 261 267
322 321 314 316 311 309 302 293 285 274 272 273 275 274 263 262 262 264 265 264 264 259 263 262 262 270 275 271 266 266 264 263 257 246 247 254 258 256 253 252 255 260 268
319 313 311 306 307 310 313 315 316 301 294 293 292 290 289 289 287 283 280 276 271 268 266 255 256 257 253 253 258 261 250 255 257 260 255 246 248 253 253 255 255 259 268
344 343 338 330 323 321 318 314 313 313 317 313 314 318 313 313 308 303 297 293 288 285 285 273 275 275 259 261 255 261 252 252 259 266 263 260 239 238 250 252 253 256 263